Date String (YYYY-MM-DD hh:mm:ss) UTC,Instrument flags,absolute air pressure of the measurement (hPa),sample flow rate (lpm),inlet stack bypass flow (lpm),air temperature of the measurement (°C),ambient temperature measured by the external sensor (°C),aerosol sample conditioner tube jacket temperature (°C),OPC LED temperature (°C),internal box temperature (°C),relative humidity of the measurement (%),span deviation,mass concentration of particles derived from Lorenz-Mie calculation of OPC scattering (μg/m³),mass concentration of particles derived from Lorenz-Mie calculation of OPC scattering (μg/m³),mass concentration of particles derived from Lorenz-Mie calculation of OPC scattering (μg/m³)
DateTimeUTC,F1_M11,P_M11,Q1_M11,Q2_M11,T1_M11,T2_M11,T3_M11,T4_M11,T5_M11,U1_M11,ZSPAN_M11,X0_M11,X2_M11,X1_M11
2023-06-13 05:00:00,SystemResetWarning,0830.4,5.00,000.00,030.0,028.4,000.0,038.5,031.4,26.0,0000.0,0004.76,0002.93,0002.12
2023-06-13 05:01:00,SystemResetWarning,0830.4,5.00,000.00,030.0,028.4,000.0,038.5,031.4,25.9,0000.0,0004.85,0002.96,0002.13
2023-06-13 05:02:00,SystemResetWarning,0830.4,5.01,000.00,030.0,028.4,000.0,038.5,031.4,25.7,0000.0,0004.97,0002.98,0002.13
2023-06-13 05:03:00,SystemResetWarning,0830.4,5.00,000.00,030.0,028.4,000.0,038.5,031.5,25.5,0000.0,0004.90,0002.94,0002.12
2023-06-13 05:04:00,SystemResetWarning,0830.4,5.00,000.00,030.0,028.4,000.0,038.5,031.5,25.5,0000.0,0005.08,0003.01,0002.13
2023-06-13 05:05:00,SystemResetWarning,0830.3,5.00,000.00,030.0,028.4,000.0,038.5,031.4,25.4,0000.0,0005.06,0003.01,0002.10
2023-06-13 05:06:00,SystemResetWarning,0830.3,4.99,000.00,030.0,028.4,000.0,038.6,031.5,25.3,0000.0,0005.69,0003.02,0002.11
2023-06-13 05:07:00,SystemResetWarning,0830.3,5.00,000.00,030.0,028.4,000.0,038.6,031.5,25.2,0000.0,0005.54,0002.97,0002.09
2023-06-13 05:08:00,SystemResetWarning,0830.3,5.00,000.00,030.0,028.4,000.0,038.6,031.5,25.3,0000.0,0005.75,0002.91,0002.08
2023-06-13 05:09:00,SystemResetWarning,0830.2,5.00,000.00,030.0,028.4,000.0,038.6,031.5,25.4,0000.0,0006.31,0002.92,0002.08
2023-06-13 05:10:00,SystemResetWarning,0830.3,5.00,000.00,030.0,028.4,000.0,038.6,031.5,25.5,0000.0,0007.18,0002.91,0002.08
2023-06-13 05:11:00,SystemResetWarning,0830.3,5.00,000.00,030.0,028.4,000.0,038.6,031.5,25.4,0000.0,0007.46,0002.87,0002.07
2023-06-13 05:12:00,SystemResetWarning,0830.3,5.00,000.00,030.0,028.4,000.0,038.6,031.5,25.3,0000.0,0007.72,0002.86,0002.07
2023-06-13 05:13:00,SystemResetWarning,0830.3,5.01,000.00,030.1,028.4,000.0,038.6,031.5,25.2,0000.0,0007.70,0002.85,0002.06
2023-06-13 05:14:00,SystemResetWarning,0830.3,5.00,000.00,030.1,028.4,000.0,038.6,031.5,25.0,0000.0,0007.69,0002.84,0002.05
2023-06-13 05:15:00,SystemResetWarning,0830.2,5.00,000.00,030.1,028.5,000.0,038.6,031.5,24.9,0000.0,0007.62,0002.80,0002.03
2023-06-13 05:16:00,SystemResetWarning,0830.2,5.00,000.00,030.1,028.4,000.0,038.6,031.5,25.0,0000.0,0007.59,0002.78,0002.03
2023-06-13 05:17:00,SystemResetWarning,0830.2,5.00,000.00,030.1,028.4,000.0,038.6,031.6,25.0,0000.0,0007.28,0002.69,0002.04
2023-06-13 05:18:00,SystemResetWarning,0830.2,5.00,000.00,030.1,028.5,000.0,038.6,031.6,25.1,0000.0,0007.17,0002.67,0002.03
2023-06-13 05:19:00,SystemResetWarning,0830.2,5.01,000.00,030.1,028.5,000.0,038.6,031.5,25.1,0000.0,0007.10,0002.67,0002.02
2023-06-13 05:20:00,SystemResetWarning,0830.2,4.99,000.00,030.1,028.5,000.0,038.6,031.6,25.1,0000.0,0006.23,0002.64,0002.02
2023-06-13 05:21:00,SystemResetWarning,0830.2,5.00,000.00,030.1,028.5,000.0,038.6,031.6,25.2,0000.0,0005.79,0002.62,0002.01
2023-06-13 05:22:00,SystemResetWarning,0830.2,5.00,000.00,030.1,028.5,000.0,038.6,031.6,25.2,0000.0,0005.15,0002.63,0002.01
2023-06-13 05:23:00,SystemResetWarning,0830.2,5.00,000.00,030.1,028.5,000.0,038.6,031.6,25.2,0000.0,0004.95,0002.63,0001.99
2023-06-13 05:24:00,SystemResetWarning,0830.2,5.00,000.00,030.1,028.5,000.0,038.6,031.6,25.2,0000.0,0004.60,0002.60,0001.97
2023-06-13 05:25:00,SystemResetWarning,0830.2,5.00,000.00,030.1,028.5,000.0,038.6,031.6,25.2,0000.0,0004.57,0002.59,0001.98
2023-06-13 05:26:00,SystemResetWarning,0830.2,4.99,000.00,030.1,028.5,000.0,038.6,031.6,25.3,0000.0,0004.61,0002.60,0001.98
2023-06-13 05:27:00,SystemResetWarning,0830.2,5.00,000.00,030.1,028.5,000.0,038.6,031.6,25.4,0000.0,0004.79,0002.63,0001.98
2023-06-13 05:28:00,SystemResetWarning,0830.2,5.01,000.00,030.1,028.5,000.0,038.6,031.6,25.4,0000.0,0004.81,0002.67,0001.98
2023-06-13 05:29:00,SystemResetWarning,0830.2,5.00,000.00,030.1,028.5,000.0,038.6,031.6,25.5,0000.0,0004.74,0002.67,0001.99
2023-06-13 05:30:00,SystemResetWarning,0830.2,5.00,000.00,030.1,028.5,000.0,038.6,031.6,25.6,0000.0,0004.92,0002.70,0002.00
2023-06-13 05:31:00,SystemResetWarning,0830.2,5.00,000.00,030.1,028.5,000.0,038.6,031.6,25.7,0000.0,0004.95,0002.71,0002.00
2023-06-13 05:32:00,SystemResetWarning,0830.2,5.00,000.00,030.1,028.5,000.0,038.7,031.6,25.6,0000.0,0004.94,0002.75,0002.01
2023-06-13 05:33:00,SystemResetWarning,0830.1,5.00,000.00,030.1,028.5,000.0,038.7,031.6,25.6,0000.0,0005.80,0002.81,0002.03
2023-06-13 05:34:00,SystemResetWarning,0830.2,5.00,000.00,030.1,028.5,000.0,038.7,031.6,25.5,0000.0,0007.41,0002.84,0002.04
2023-06-13 05:35:00,SystemResetWarning,0830.2,5.00,000.00,030.1,028.5,000.0,038.7,031.6,25.4,0000.0,0007.42,0002.85,0002.06
2023-06-13 05:36:00,SystemResetWarning,0830.2,5.00,000.00,030.1,028.5,000.0,038.7,031.6,25.3,0000.0,0007.43,0002.86,0002.06
2023-06-13 05:37:00,SystemResetWarning,0830.3,5.00,000.00,030.1,028.5,000.0,038.7,031.6,25.4,0000.0,0007.50,0002.88,0002.07
2023-06-13 05:38:00,SystemResetWarning,0830.3,5.00,000.00,030.1,028.5,000.0,038.7,031.6,25.4,0000.0,0007.37,0002.81,0002.08
2023-06-13 05:39:00,SystemResetWarning,0830.3,5.00,000.00,030.1,028.5,000.0,038.7,031.6,25.4,0000.0,0007.34,0002.79,0002.07
2023-06-13 05:40:00,SystemResetWarning,0830.3,5.01,000.00,030.1,028.5,000.0,038.7,031.6,25.8,0000.0,0007.36,0002.81,0002.07
2023-06-13 05:41:00,SystemResetWarning,0830.2,4.98,000.00,030.1,028.5,000.0,038.7,031.6,25.8,0000.0,0007.37,0002.85,0002.08
2023-06-13 05:42:00,SystemResetWarning,0830.2,5.01,000.00,030.1,028.5,000.0,038.7,031.7,26.1,0000.0,0007.37,0002.85,0002.10
2023-06-13 05:43:00,SystemResetWarning,0830.2,5.00,000.00,030.1,028.5,000.0,038.7,031.7,26.1,0000.0,0007.39,0002.84,0002.10
2023-06-13 05:44:00,SystemResetWarning,0830.2,5.01,000.00,030.1,028.5,000.0,038.7,031.6,25.9,0000.0,0006.35,0002.78,0002.08
2023-06-13 05:45:00,SystemResetWarning,0830.2,5.01,000.00,030.1,028.5,000.0,038.7,031.6,26.0,0000.0,0004.58,0002.76,0002.08
2023-06-13 05:46:00,SystemResetWarning,0830.3,5.00,000.00,030.1,028.5,000.0,038.7,031.6,26.0,0000.0,0004.55,0002.76,0002.07
2023-06-13 05:47:00,SystemResetWarning,0830.3,4.99,000.00,030.1,028.5,000.0,038.7,031.6,25.8,0000.0,0004.52,0002.75,0002.07
2023-06-13 05:48:00,SystemResetWarning,0830.3,5.00,000.00,030.1,028.5,000.0,038.7,031.6,25.9,0000.0,0004.44,0002.72,0002.07
2023-06-13 05:49:00,SystemResetWarning,0830.3,5.00,000.00,030.1,028.5,000.0,038.7,031.6,25.9,0000.0,0005.13,0002.74,0002.07
2023-06-13 05:50:00,SystemResetWarning,0830.3,5.00,000.00,030.2,028.5,000.0,038.7,031.6,25.7,0000.0,0005.63,0002.70,0002.07
2023-06-13 05:51:00,SystemResetWarning,0830.3,5.00,000.00,030.1,028.5,000.0,038.7,031.6,25.7,0000.0,0005.58,0002.68,0002.05
2023-06-13 05:52:00,SystemResetWarning,0830.3,5.00,000.00,030.1,028.5,000.0,038.7,031.6,25.8,0000.0,0005.76,0002.61,0002.04
2023-06-13 05:53:00,SystemResetWarning,0830.3,4.99,000.00,030.1,028.5,000.0,038.7,031.6,26.1,0000.0,0006.56,0002.62,0002.02
2023-06-13 05:54:00,SystemResetWarning,0830.3,5.00,000.00,030.2,028.5,000.0,038.7,031.6,26.3,0000.0,0006.53,0002.58,0002.00
2023-06-13 05:55:00,SystemResetWarning,0830.3,5.01,000.00,030.2,028.5,000.0,038.7,031.6,26.2,0000.0,0006.75,0002.61,0002.00
2023-06-13 05:56:00,SystemResetWarning,0830.3,5.00,000.00,030.2,028.5,000.0,038.7,031.6,26.1,0000.0,0006.89,0002.64,0002.01
2023-06-13 05:57:00,SystemResetWarning,0830.3,4.99,000.00,030.2,028.5,000.0,038.7,031.6,26.1,0000.0,0007.42,0002.64,0002.01
2023-06-13 05:58:00,SystemResetWarning,0830.3,4.99,000.00,030.2,028.5,000.0,038.7,031.6,26.1,0000.0,0007.64,0002.71,0002.03
2023-06-13 05:59:00,SystemResetWarning,0830.3,5.01,000.00,030.2,028.5,000.0,038.7,031.7,26.1,0000.0,0007.76,0002.75,0002.05
